Temp
99 91 82 90 93 92 89 86 83 86 87 84 84 83 84 85 84 83 83 86 86 86 89 86 85 84 82 80 79 77 76 75 77 79 78 78 78 79 80 80 78 76 76 76
93 88 94 96 94 91 88 85 82 85 86 84 83 83 86 86 84 85 85 86 87 87 88 85 85 84 82 79 78 77 76 74 76 78 77 77 77 79 80 80 78 77 75 75
87 91 95 92 90 88 88 84 83 82 85 86 84 80 82 85 87 88 88 88 90 86 85 86 85 84 85 80 78 77 75 74 74 74 78 78 80 79 78 78 78 77 75 74
92 96 91 90 88 90 70 90 86 83 80 76 85 73 79 81 81 84 87 89 89 89 88 86 87 85 84 83 81 79 76 75 76 74 76 72 74 74 76 77 77 77 76 74
88 90 89 88 88 91 85 91 87 85 82 80 79 77 77 83 79 82 86 88 90 92 91 88 90 88 87 85 84 81 76 75 74 74 73 74 73 76 78 76 74 75 76 76
92 96 94 91 91 92 91 87 85 85 76 65 77 76 77 80 82 86 89 90 90 92 93 91 92 90 87 87 85 82 78 75 75 75 74 72 71 70 72 72 74 75 77 76
89 90 92 94 88 91 89 83 65 67 57 68 79 77 79 86 88 88 89 90 91 92 93 88 87 89 86 85 83 84 79 76 75 75 75 73 72 71 72 72 74 72 75 74
79 72 86 94 91 86 85 82 72 61 66 73 72 73 80 89 91 91 92 94 94 93 94 90 88 90 88 85 83 82 80 77 77 76 75 75 74 76 76 74 73 74 74 74
80 80 93 93 93 92 82 78 87 75 79 70 74 82 86 89 88 89 89 91 91 92 92 92 93 90 89 85 83 82 80 79 77 76 76 74 74 73 73 71 71 73 74 74
86 77 90 92 94 94 88 92 77 76 63 62 72 73 73 82 85 87 87 88 91 91 92 93 92 88 87 86 84 83 83 81 79 78 77 77 75 75 74 74 70 69 71 72
91 83 81 88 85 84 84 80 71 80 77 67 63 73 86 85 87 86 88 91 91 92 93 92 92 89 87 87 87 84 83 82 80 79 78 76 75 75 75 74 73 70 69 69
92 83 77 81 86 94 90 84 83 74 70 75 74 73 88 90 90 89 89 91 94 94 94 94 92 89 86 86 86 85 82 83 83 81 79 76 76 75 74 73 74 71 69 70
90 80 72 76 84 87 77 79 78 83 79 70 68 71 86 86 88 89 89 92 92 92 92 93 92 88 86 85 84 84 82 83 83 81 80 77 75 74 73 73 73 73 72 69
81 82 77 72 75 80 73 76 83 82 73 75 76 77 84 64 82 88 88 90 92 92 91 92 90 89 87 84 84 83 82 83 82 81 79 78 76 75 74 74 73 73 71 70
86 76 82 85 87 86 83 83 85 81 82 74 79 80 86 90 89 90 90 90 90 90 90 90 88 88 87 84 83 82 82 81 81 79 79 77 77 76 75 74 73 73 72 73
86 78 82 80 86 85 82 85 86 85 84 83 82 81 85 83 93 90 89 89 89 89 90 89 89 87 86 85 83 82 80 79 79 78 78 79 78 77 75 74 73 72 72 73
82 81 78 73 79 79 75 81 83 84 86 84 77 82 90 89 88 89 90 90 89 90 91 90 89 88 85 85 83 81 81 81 78 78 79 79 78 77 75 75 74 72 71 71
81 79 80 75 79 65 80 90 87 83 85 87 87 87 88 88 90 92 92 89 88 88 89 89 90 87 85 85 84 83 83 80 78 77 78 80 79 77 77 75 73 72 71 70
87 82 76 72 72 78 83 75 69 80 79 86 85 87 88 89 89 80 85 89 87 86 87 87 88 87 84 83 84 82 81 80 79 78 79 80 80 78 76 74 73 72 71 70
86 83 78 76 67 65 79 85 90 88 75 86 86 85 86 88 74 80 86 87 84 85 86 85 87 85 83 82 83 80 79 80 79 80 80 81 80 77 75 74 73 73 72 71
77 78 74 73 72 78 86 89 90 71 67 86 87 86 86 83 84 84 87 86 87 85 84 85 85 83 81 82 81 79 79 79 81 82 81 80 79 76 75 74 73 72 71 71
76 73 74 76 70 67 85 87 78 81 86 87 88 87 86 87 87 87 87 86 86 85 85 86 83 82 82 82 81 79 78 81 82 81 80 79 78 77 78 74 72 72 72 70
74 80 74 76 75 74 77 83 87 88 85 87 87 88 88 88 88 88 87 86 86 86 85 87 84 82 82 82 81 79 80 82 81 80 79 78 78 77 77 73 72 72 72 72
83 85 80 79 84 85 87 89 90 90 88 89 89 89 89 88 90 89 88 87 86 87 85 86 84 82 80 82 82 81 81 82 77 79 78 78 76 74 75 76 76 75 75 68
86 80 81 80 85 87 88 88 88 89 89 90 90 89 89 89 89 90 89 87 87 87 86 86 84 82 82 84 83 82 81 75 75 77 77 76 75 73 76 76 75 75 75 69
89 82 80 75 83 84 83 87 90 88 87 90 89 89 90 90 88 89 88 89 87 86 86 84 84 82 77 81 81 78 76 77 74 74 76 76 74 77 77 74 75 63 53 50
MSLP
1005.94 1005.61 1006.00 1005.15 1005.42 1005.73 1005.85 1005.75 1005.99 1007.23 1008.62 1008.87 1008.65 1009.28 1010.60 1012.29 1013.21 1013.55 1014.03 1014.09 1014.76 1015.24 1016.03 1017.88 1018.61 1019.20 1019.88 1020.39 1020.84 1021.19 1021.34 1021.32 1020.77 1020.33 1020.19 1020.05 1020.00 1020.08 1019.87 1020.14 1020.61 1020.66 1020.49 1020.21
1005.56 1004.62 1005.02 1005.58 1005.87 1005.50 1005.44 1005.17 1006.16 1007.25 1008.22 1008.63 1008.28 1008.63 1009.39 1010.86 1011.93 1012.66 1013.24 1013.48 1013.68 1014.47 1015.36 1017.21 1018.08 1018.70 1019.25 1020.12 1020.63 1021.03 1021.34 1021.51 1021.06 1020.59 1020.65 1020.80 1020.58 1020.15 1020.08 1020.07 1020.33 1020.53 1020.62 1020.47
1005.29 1005.05 1005.79 1005.75 1005.34 1005.10 1005.37 1005.61 1006.19 1006.95 1007.65 1008.28 1007.92 1007.63 1008.72 1010.15 1011.02 1011.57 1012.15 1012.65 1013.11 1013.76 1014.62 1015.76 1017.20 1018.06 1018.55 1019.51 1020.30 1020.87 1021.24 1021.38 1021.45 1021.33 1020.58 1020.48 1019.85 1019.85 1019.88 1019.96 1020.12 1020.33 1020.57 1020.52
1005.31 1005.36 1005.79 1005.56 1005.07 1005.50 1007.88 1006.37 1006.65 1007.01 1007.25 1006.56 1007.59 1006.48 1007.73 1009.30 1010.29 1010.93 1011.38 1011.81 1012.31 1012.87 1013.87 1014.84 1015.92 1017.14 1018.00 1018.72 1019.81 1020.40 1021.10 1021.33 1021.26 1021.32 1020.90 1021.15 1020.41 1020.08 1020.20 1020.02 1020.33 1020.20 1020.43 1020.44
1005.24 1005.35 1005.45 1005.17 1005.50 1005.95 1006.21 1006.56 1006.66 1006.96 1006.88 1006.59 1006.89 1006.35 1007.12 1008.18 1008.92 1009.72 1010.43 1010.97 1011.55 1012.09 1012.74 1013.80 1014.61 1015.84 1017.12 1018.25 1018.97 1019.99 1020.86 1021.21 1021.43 1021.46 1021.49 1021.02 1020.91 1020.51 1020.19 1020.36 1020.32 1020.08 1019.90 1020.07
1005.62 1006.27 1006.06 1005.87 1006.35 1006.37 1006.65 1006.72 1007.37 1007.33 1007.97 1006.45 1006.59 1006.51 1005.64 1006.70 1007.49 1007.59 1008.60 1009.94 1010.87 1011.64 1012.04 1013.15 1014.11 1015.24 1016.66 1017.74 1018.44 1019.44 1020.26 1020.80 1021.14 1021.35 1021.42 1021.43 1021.34 1021.24 1020.85 1020.76 1020.08 1020.04 1019.73 1019.81
1005.56 1005.56 1006.30 1006.50 1006.05 1006.49 1006.56 1006.31 1006.74 1007.26 1008.70 1006.23 1006.32 1006.03 1005.81 1006.54 1007.04 1007.51 1007.47 1008.56 1009.92 1010.98 1011.53 1012.76 1013.74 1014.84 1016.29 1017.26 1018.26 1018.78 1019.76 1020.32 1020.75 1020.98 1021.18 1021.33 1021.42 1021.36 1020.74 1020.64 1020.23 1020.43 1019.91 1019.97
1005.11 1005.82 1006.56 1006.17 1005.75 1005.63 1005.80 1006.44 1006.95 1006.78 1006.20 1005.72 1007.91 1005.75 1005.45 1006.56 1007.01 1007.47 1007.76 1007.84 1008.82 1009.94 1010.72 1012.06 1013.05 1014.16 1015.61 1016.72 1017.86 1018.51 1019.15 1019.84 1020.25 1020.62 1020.86 1021.17 1021.40 1020.89 1020.57 1020.63 1020.96 1020.38 1020.32 1020.14
1005.14 1005.09 1005.86 1006.03 1006.09 1006.26 1005.85 1006.34 1006.77 1007.17 1006.36 1006.43 1006.16 1005.05 1005.47 1006.07 1006.47 1007.21 1007.71 1008.05 1008.40 1009.28 1010.38 1011.19 1012.19 1013.88 1014.97 1016.33 1017.35 1018.06 1018.52 1019.12 1019.86 1020.23 1020.71 1020.85 1020.98 1021.13 1020.92 1021.13 1021.16 1020.41 1020.43 1020.39
1005.61 1005.47 1005.72 1005.73 1006.30 1006.27 1006.48 1006.59 1006.54 1006.75 1006.58 1006.07 1005.55 1005.09 1005.77 1005.61 1005.81 1006.70 1007.53 1008.02 1008.48 1009.42 1010.36 1010.89 1012.10 1013.76 1014.99 1016.02 1016.98 1017.79 1018.23 1018.68 1019.31 1019.68 1019.98 1020.25 1020.67 1020.70 1020.73 1020.65 1020.89 1020.88 1020.54 1020.40
1006.13 1006.25 1006.02 1006.73 1005.89 1005.47 1006.44 1007.20 1008.20 1007.80 1007.26 1006.51 1006.35 1005.10 1005.42 1006.00 1005.95 1006.33 1007.00 1007.42 1008.29 1009.09 1009.73 1010.54 1011.98 1013.63 1014.89 1015.62 1016.27 1017.20 1017.74 1018.16 1018.70 1019.44 1019.64 1019.93 1020.25 1020.36 1020.52 1020.47 1020.27 1020.59 1020.47 1020.28
1006.47 1006.59 1006.21 1005.73 1007.02 1006.16 1006.38 1006.51 1006.61 1006.95 1006.81 1006.63 1006.44 1005.42 1005.90 1006.01 1005.95 1006.29 1006.79 1007.14 1007.73 1008.36 1009.21 1010.10 1011.55 1013.31 1014.57 1015.19 1015.78 1016.47 1017.31 1017.55 1017.81 1018.49 1019.14 1019.52 1019.84 1019.98 1020.05 1020.13 1020.10 1020.01 1020.08 1019.80
1006.94 1007.14 1006.78 1006.00 1005.90 1006.76 1007.66 1007.75 1008.43 1006.58 1007.15 1006.76 1006.21 1006.34 1007.79 1007.04 1006.71 1006.59 1006.49 1006.98 1007.75 1008.54 1009.34 1010.13 1011.23 1012.72 1013.96 1014.77 1015.59 1016.15 1016.99 1017.29 1017.58 1018.04 1018.42 1018.85 1019.19 1019.52 1019.60 1019.67 1019.82 1019.82 1019.65 1019.55
1008.27 1007.56 1006.93 1006.19 1006.02 1007.98 1007.81 1007.94 1007.16 1006.51 1006.46 1006.02 1005.42 1005.84 1005.47 1006.80 1006.37 1006.24 1006.72 1007.29 1007.59 1008.23 1009.11 1009.97 1010.81 1011.99 1013.40 1014.54 1015.21 1016.01 1016.58 1016.94 1017.38 1017.83 1018.12 1018.28 1018.67 1018.98 1019.23 1019.33 1019.47 1019.44 1019.39 1019.24
1008.36 1007.74 1006.98 1006.16 1005.85 1005.87 1005.78 1005.80 1005.53 1005.45 1005.65 1005.69 1005.43 1005.15 1005.04 1004.97 1004.79 1005.96 1006.55 1007.40 1007.77 1008.22 1008.93 1009.85 1010.76 1011.65 1013.01 1014.17 1015.08 1015.82 1016.31 1016.93 1017.29 1017.57 1017.84 1018.03 1018.37 1018.62 1018.94 1019.05 1019.08 1019.06 1018.97 1018.73
1008.27 1007.70 1007.07 1006.40 1005.75 1005.93 1005.61 1005.36 1005.27 1005.13 1005.43 1005.50 1005.65 1005.40 1005.80 1006.82 1006.36 1006.56 1006.91 1007.53 1007.88 1008.21 1008.63 1009.60 1010.45 1011.62 1012.68 1013.75 1014.84 1015.60 1016.26 1016.82 1017.32 1017.52 1017.58 1017.66 1017.81 1018.11 1018.33 1018.54 1018.62 1018.64 1018.54 1018.32
1007.89 1007.43 1007.21 1006.18 1006.67 1006.68 1005.66 1005.28 1005.53 1005.70 1005.86 1005.78 1005.56 1005.74 1005.99 1005.91 1006.23 1006.59 1007.09 1007.79 1008.15 1008.54 1008.80 1009.34 1010.23 1011.33 1012.74 1013.53 1014.61 1015.26 1015.98 1016.52 1017.01 1017.28 1017.29 1017.30 1017.43 1017.63 1017.84 1017.99 1018.05 1018.07 1018.00 1017.87
1007.78 1007.74 1007.27 1006.56 1006.30 1005.98 1005.63 1005.87 1006.22 1006.39 1006.46 1006.14 1006.09 1006.05 1006.68 1007.02 1007.38 1007.66 1008.45 1009.15 1009.35 1009.48 1009.54 1009.66 1010.48 1011.71 1012.78 1013.76 1014.43 1015.21 1015.70 1016.29 1016.69 1016.95 1016.95 1016.86 1016.94 1017.04 1017.21 1017.47 1017.44 1017.55 1017.65 1017.50
1008.04 1007.77 1007.18 1007.00 1006.33 1005.94 1005.49 1006.88 1008.40 1006.50 1006.75 1006.86 1006.81 1006.70 1006.99 1007.66 1008.10 1009.98 1010.66 1010.57 1010.57 1010.66 1010.80 1010.90 1011.30 1012.19 1013.27 1014.08 1014.59 1015.27 1015.71 1015.98 1016.29 1016.47 1016.51 1016.41 1016.51 1016.69 1016.86 1017.01 1017.10 1017.12 1017.07 1016.94
1007.95 1008.21 1008.06 1007.18 1006.87 1005.95 1006.12 1006.83 1007.46 1006.99 1006.82 1007.63 1007.58 1007.54 1007.83 1008.10 1008.48 1009.75 1010.40 1010.60 1011.29 1011.42 1011.58 1011.93 1012.25 1013.02 1013.86 1014.43 1014.94 1015.40 1015.57 1015.66 1015.83 1015.93 1016.02 1016.14 1016.31 1016.51 1016.57 1016.64 1016.66 1016.61 1016.51 1016.23
1007.25 1007.56 1007.31 1006.89 1006.73 1006.20 1005.85 1006.34 1006.97 1006.98 1008.47 1008.17 1008.04 1008.18 1008.33 1008.57 1009.47 1010.26 1010.66 1011.06 1011.40 1011.76 1012.13 1012.56 1012.93 1013.51 1014.35 1014.82 1015.20 1015.43 1015.58 1015.53 1015.53 1015.63 1015.74 1015.84 1015.98 1016.13 1016.20 1016.19 1016.16 1016.03 1015.77 1015.45
1007.15 1007.24 1006.90 1006.85 1006.84 1007.04 1007.34 1007.25 1007.02 1008.34 1008.33 1008.35 1008.43 1008.71 1008.89 1009.12 1009.85 1010.22 1010.63 1011.11 1011.59 1012.06 1012.49 1012.68 1013.19 1013.77 1014.40 1014.81 1015.19 1015.20 1015.32 1015.46 1015.55 1015.62 1015.59 1015.60 1015.67 1015.71 1015.48 1015.39 1015.22 1015.08 1014.84 1014.55
1007.59 1007.66 1007.87 1007.72 1007.79 1008.86 1008.86 1009.12 1008.45 1008.64 1008.55 1008.68 1008.95 1009.16 1009.24 1009.29 1009.49 1010.09 1010.57 1011.11 1011.53 1011.96 1012.46 1012.71 1013.23 1013.92 1014.43 1014.75 1015.03 1015.04 1015.07 1015.26 1015.32 1015.34 1015.50 1015.35 1015.18 1015.15 1014.83 1014.68 1014.51 1014.23 1013.86 1013.43
1007.44 1007.82 1007.96 1007.76 1007.40 1007.81 1008.10 1008.22 1008.45 1008.61 1008.90 1009.11 1009.42 1009.51 1009.55 1009.63 1009.67 1009.76 1010.37 1011.10 1011.65 1012.01 1012.46 1012.78 1013.36 1013.80 1014.30 1014.66 1014.82 1014.97 1015.15 1015.23 1015.51 1015.24 1015.04 1014.87 1014.76 1014.45 1014.39 1014.14 1013.70 1013.20 1012.58 1012.53
1007.07 1008.26 1007.88 1007.75 1007.56 1007.73 1007.79 1008.51 1008.69 1008.97 1009.35 1009.40 1009.68 1009.85 1009.92 1010.00 1010.00 1009.96 1010.11 1010.83 1011.62 1011.99 1012.45 1012.95 1013.36 1013.96 1014.32 1014.67 1014.84 1015.02 1015.10 1015.38 1015.44 1015.22 1015.03 1014.80 1014.68 1014.42 1013.58 1013.00 1012.53 1012.31 1011.97 1011.99
1007.32 1007.40 1007.81 1008.00 1008.40 1008.29 1008.97 1009.21 1009.21 1009.45 1009.81 1009.92 1010.02 1010.22 1010.40 1010.44 1010.49 1010.49 1010.48 1010.94 1011.75 1012.27 1012.78 1013.43 1013.83 1014.27 1014.88 1014.59 1015.27 1016.07 1016.12 1015.86 1015.63 1015.39 1014.98 1014.85 1014.75 1013.76 1013.16 1012.78 1012.34 1012.13 1012.01 1011.76
Wind_Speed
14 7 16 7 14 11 7 7 5 7 5 7 6 3 14 16 13 9 9 9 10 8 11 9 7 5 6 4 6 7 7 6 5 6 7 6 6 4 5 6 7 9 10 11
7 13 11 8 9 5 4 5 13 4 3 7 4 9 13 17 15 14 13 10 10 9 11 10 8 6 4 4 4 6 6 6 6 5 4 3 4 4 4 4 4 8 10 10
14 6 4 7 7 8 7 10 9 9 2 10 10 15 12 13 13 14 13 13 10 10 11 13 10 7 7 5 4 5 5 5 5 5 4 5 1 4 6 6 7 7 8 9
9 8 6 9 8 10 20 7 5 3 9 1 3 6 14 12 12 12 12 11 12 11 8 9 11 10 7 5 5 5 4 3 6 4 4 4 6 5 4 6 7 6 7 8
11 2 7 12 11 5 9 6 7 6 12 8 11 8 11 11 11 14 13 13 11 10 11 11 12 11 9 8 7 6 3 3 4 3 4 6 6 6 6 6 6 5 4 5
9 2 7 8 1 4 2 7 8 12 19 5 4 6 7 7 4 5 14 14 10 11 11 9 8 9 9 8 7 6 4 4 2 2 1 3 5 6 6 7 6 7 5 5
14 14 6 8 7 4 8 15 5 4 5 5 5 3 9 9 3 6 5 15 15 13 9 10 10 11 8 9 5 6 5 3 3 0 1 3 4 5 7 5 7 8 6 6
12 6 4 9 12 7 7 8 9 14 12 11 27 1 8 8 5 4 5 6 14 15 12 10 11 9 11 9 7 6 7 4 5 1 1 2 4 6 7 7 6 7 6 6
9 5 13 8 3 8 3 7 9 9 14 5 3 8 15 6 3 1 6 8 10 10 8 11 11 10 7 9 8 6 4 4 4 3 2 2 2 4 5 3 6 5 5 7
9 5 12 13 7 10 9 11 10 7 9 10 7 10 6 7 8 4 4 7 9 7 9 9 7 11 8 9 8 6 6 6 6 6 5 3 2 3 4 5 2 5 6 7
12 5 4 7 11 14 7 11 9 19 6 10 13 9 8 5 6 3 2 7 8 10 12 11 10 12 10 9 9 8 7 6 7 6 5 4 4 4 4 6 5 3 5 5
13 5 13 14 7 14 10 14 8 7 12 14 12 11 6 2 4 5 2 5 7 8 7 8 10 12 11 10 8 8 6 5 5 5 6 5 5 5 5 6 7 4 6 5
4 6 10 17 6 4 11 22 20 8 4 15 10 7 5 17 3 4 3 2 5 5 6 8 10 12 12 10 9 7 7 7 5 5 7 8 7 7 7 6 6 8 7 5
3 9 10 14 9 5 8 24 22 10 7 14 16 15 5 15 18 5 2 1 4 9 8 9 10 12 11 10 10 8 6 5 5 6 6 5 5 6 7 6 7 8 6 6
5 10 15 14 15 8 8 17 13 10 11 13 17 20 15 10 4 5 5 3 4 4 7 9 10 9 11 11 9 8 7 6 5 5 6 5 5 6 6 6 7 7 8 8
4 9 9 13 13 10 13 12 15 13 9 12 16 15 15 7 15 6 2 3 6 6 7 7 10 12 11 11 10 8 6 6 5 6 7 6 5 5 6 6 7 9 9 9
6 9 6 14 9 19 11 6 11 11 11 13 9 14 10 9 3 6 7 8 7 7 8 7 7 9 8 8 9 7 7 6 6 7 8 7 6 7 7 7 8 9 9 8
6 8 10 9 10 13 7 5 5 6 11 8 11 6 7 8 6 11 18 13 10 10 8 3 3 5 8 7 8 6 6 6 6 7 8 7 7 8 7 8 8 8 9 9
7 9 10 8 10 16 13 10 1 9 12 4 8 6 4 4 3 12 8 7 8 8 7 5 5 5 6 7 6 5 5 5 6 7 8 8 7 8 8 9 9 8 9 9
8 7 9 11 13 12 7 8 5 2 8 6 4 4 7 7 1 7 5 8 6 6 6 5 5 7 6 5 5 5 5 6 6 7 7 7 7 8 9 9 9 9 9 11
11 11 13 12 13 15 7 11 1 7 5 4 4 3 4 6 6 6 7 7 7 8 8 7 6 7 6 5 4 4 5 6 6 7 7 7 8 8 9 9 9 10 11 12
9 10 10 12 14 14 17 8 5 5 2 3 4 5 5 3 3 4 6 7 8 8 7 7 6 7 6 5 4 4 4 5 6 7 8 8 9 7 9 9 9 10 11 13
7 7 7 8 6 6 10 14 4 1 3 5 5 7 5 3 3 4 4 6 7 7 6 6 6 7 5 5 4 4 3 4 6 7 9 10 10 11 11 10 11 11 12 12
10 3 6 8 1 1 3 3 1 1 2 4 3 4 5 7 7 4 4 5 6 6 6 5 5 6 5 4 4 4 5 7 8 12 11 10 12 10 11 11 10 11 11 10
7 4 9 9 11 4 4 8 5 6 4 4 6 5 5 6 7 9 5 6 6 6 6 5 4 4 3 1 2 5 5 6 9 11 12 10 10 13 12 10 8 8 9 9
11 2 7 5 7 4 8 6 7 8 8 8 8 8 9 10 10 9 7 3 4 4 3 3 1 7 7 4 8 9 8 8 9 11 10 9 10 12 10 9 10 10 9 15
Wind_Direction
202 238 248 315 2 353 340 328 25 75 94 263 255 267 166 188 197 213 209 177 207 196 139 162 186 151 138 102 67 41 48 37 11 33 16 12 3 30 9 31 18 11 4 11
245 254 55 355 321 296 287 311 52 136 136 245 144 249 176 189 198 203 204 219 199 188 158 169 187 183 174 108 65 56 35 38 22 39 24 3 350 348 334 31 29 25 6 12
278 26 11 311 251 259 38 6 5 356 198 232 277 218 189 190 197 207 214 193 227 180 181 171 190 195 180 154 109 81 53 52 40 4 31 356 306 258 16 350 31 9 15 13
266 57 325 255 263 324 82 341 307 278 274 166 275 325 174 189 204 208 216 216 209 201 183 170 169 187 195 171 138 130 75 28 88 23 41 347 330 3 351 348 30 343 28 16
238 249 241 261 33 332 17 318 287 283 265 276 178 294 144 172 190 209 214 216 212 211 179 197 169 178 181 154 174 130 128 97 70 68 1 325 9 346 356 358 337 350 38 33
273 57 299 33 150 301 27 260 4 298 329 123 313 17 77 122 9 247 184 196 177 216 182 176 149 152 167 156 173 138 151 128 87 0 6 349 338 348 340 6 316 346 358 12
221 217 156 204 177 188 261 295 240 212 243 159 84 215 33 32 46 312 210 178 180 198 210 167 171 158 169 164 186 165 163 168 129 170 306 352 337 301 294 336 9 308 347 11
254 145 213 195 261 332 218 330 357 315 337 343 16 354 89 57 37 328 280 205 183 190 206 183 166 151 176 167 181 183 160 212 166 182 69 355 345 330 294 33 346 322 336 2
287 191 180 171 262 268 173 282 357 306 303 266 167 348 109 146 136 279 242 242 194 192 197 191 175 156 171 160 174 197 191 160 186 193 218 254 305 322 342 326 309 326 336 331
306 240 212 155 222 238 269 335 289 208 303 340 301 39 319 45 47 94 239 223 228 178 213 194 195 150 174 170 165 188 187 189 198 209 204 226 304 273 322 301 270 314 313 317
257 241 139 298 213 257 167 272 44 293 298 316 339 337 79 17 63 41 225 191 214 202 213 176 196 154 184 178 186 182 197 206 198 210 225 227 264 289 297 309 313 303 305 293
238 278 263 249 22 298 292 282 266 328 328 331 297 299 178 264 121 124 272 199 213 208 206 183 177 160 185 185 201 172 214 248 216 202 219 225 245 270 281 292 303 261 269 272
183 237 255 254 260 326 4 313 320 255 317 268 286 327 257 15 266 154 170 242 194 219 209 211 179 171 188 193 197 206 190 222 229 217 221 214 227 247 262 278 289 300 299 293
4 261 269 287 290 134 209 245 263 316 282 301 303 330 302 167 232 139 130 202 236 178 217 219 192 185 192 193 196 199 205 229 206 223 236 254 260 261 268 277 278 283 275 283
238 262 260 259 272 272 242 246 300 289 294 284 305 310 307 325 84 91 112 197 268 243 196 212 215 199 198 190 197 201 201 202 235 229 246 255 257 255 255 265 273 277 282 282
203 272 280 281 257 264 273 284 284 289 297 310 312 312 28 104 261 76 173 275 291 287 249 217 210 198 206 188 206 194 206 213 224 240 253 259 264 262 254 261 263 267 270 278
217 273 253 268 85 235 282 324 336 341 320 318 301 337 334 329 18 -0 33 346 350 328 306 220 222 184 210 196 198 204 200 208 219 244 256 259 257 251 259 262 264 269 272 277
244 252 276 277 279 279 57 244 8 330 294 332 334 317 15 349 2 36 28 15 4 355 339 321 202 155 186 205 186 201 203 207 225 244 263 266 262 259 261 265 270 276 278 278
243 264 272 279 274 293 264 65 180 310 309 11 337 343 335 6 37 62 342 23 25 14 29 20 73 152 151 186 183 200 227 236 238 252 262 267 270 274 275 277 280 282 281 280
226 249 273 282 291 285 70 109 230 323 280 51 18 358 349 336 86 107 101 75 75 74 72 84 108 120 153 168 175 210 244 249 246 257 263 273 284 287 287 286 286 282 276 275
212 223 244 247 261 279 88 136 180 285 97 206 14 23 332 338 35 112 115 101 101 110 112 118 122 127 152 163 189 247 271 269 268 272 274 272 272 277 275 272 266 269 268 269
289 281 272 255 277 254 20 341 1 47 79 21 3 12 328 69 145 162 122 132 135 134 139 136 144 135 155 165 191 229 267 289 285 280 276 277 279 273 279 275 270 267 268 267
239 289 323 319 357 102 187 228 89 32 12 5 24 14 348 321 246 169 172 164 160 154 153 150 145 147 163 173 220 272 285 287 287 280 279 278 276 273 273 273 268 268 265 265
196 156 266 298 170 250 121 141 227 233 39 65 50 28 12 349 328 286 198 200 187 167 168 156 167 157 172 188 205 244 303 327 319 294 286 283 281 279 283 282 278 275 274 282
357 134 285 282 258 237 132 47 28 74 116 108 89 50 24 1 345 324 293 182 222 193 172 162 176 143 221 357 281 353 356 6 314 306 300 300 306 288 282 279 281 285 297 309
284 263 277 7 3 68 83 100 97 89 71 54 39 21 360 354 346 345 353 27 196 161 180 162 59 45 20 352 47 15 352 338 318 316 311 324 297 302 314 320 311 311 266 262